Theta_e
310 310 310 310 311 311 311 311 310 310 310 311 311 311 311 313 315 316 316 315 314 314 314 314 315 315 316 316 318 319 319 318 318 318 318 319 317 315 316 316 315 313 313 314 314 315 315 315 315 315 314 313 312 312 311 311 312 315 319 319 318 319 320 321 323 323 320 319 321 319 315 316 317 317 316 317 317 315 316 316 315 316 316 317 318 318 317 317
309 310 310 311 311 311 311 311 311 310 310 311 311 311 311 311 312 313 313 312 311 311 311 312 313 314 315 315 316 317 318 318 318 318 318 318 317 316 316 316 316 313 310 311 311 311 312 312 313 314 313 312 311 311 311 311 312 315 319 318 317 320 318 318 321 319 317 318 318 317 316 315 316 316 315 317 317 316 316 316 316 316 316 316 316 316 316 316
307 308 308 309 310 311 311 311 311 311 311 311 311 312 312 312 311 311 311 311 310 310 309 309 310 311 312 314 314 315 316 316 316 318 318 318 317 317 317 315 316 313 310 310 309 308 309 310 312 312 312 311 311 311 311 311 313 315 317 317 318 320 317 314 316 316 316 317 315 315 316 315 315 316 316 316 317 316 316 317 316 316 317 319 317 316 316 316
309 309 309 309 309 309 310 310 311 311 311 311 311 312 312 312 312 312 311 311 311 311 310 309 309 308 309 310 310 312 312 314 316 317 317 317 317 317 317 316 316 314 312 311 310 309 309 309 311 312 311 310 310 310 310 311 313 314 314 316 316 316 316 314 314 315 315 316 315 314 315 315 315 316 316 316 317 317 317 317 318 317 318 320 320 319 318 318
311 311 311 311 311 311 311 310 310 310 311 312 312 312 312 312 312 312 312 312 312 312 311 311 310 308 308 308 309 309 311 316 319 317 317 317 316 316 317 316 316 316 314 313 311 309 310 310 311 312 310 309 309 309 310 310 312 313 312 313 312 312 313 314 313 314 315 315 314 313 315 316 315 315 315 315 316 317 317 318 318 319 319 319 320 319 317 317
312 312 312 312 313 313 313 313 312 311 311 311 312 312 312 312 312 312 312 312 312 312 312 312 311 310 309 308 309 309 311 317 318 316 316 316 315 316 316 315 316 316 314 314 310 309 311 311 311 311 308 308 309 309 310 310 310 312 312 310 310 312 312 313 313 313 314 313 311 312 314 314 313 314 313 313 314 315 315 316 317 317 318 318 319 318 317 318
313 312 313 313 313 314 313 315 315 315 314 313 312 312 312 312 312 312 312 312 312 313 313 312 312 311 310 309 309 309 310 314 314 314 315 315 315 316 314 315 317 316 314 313 310 308 310 310 311 310 308 309 309 309 309 309 309 311 312 310 310 311 310 311 312 313 312 311 311 312 312 311 311 312 313 312 313 313 314 314 315 315 315 316 316 317 317 318
312 312 312 312 312 313 313 313 313 314 315 315 315 314 314 314 313 313 313 313 313 313 313 314 313 311 310 310 309 309 310 313 314 315 315 315 316 315 314 316 317 315 314 314 311 308 308 309 310 310 309 309 308 308 308 307 308 311 311 310 310 310 310 311 311 311 311 311 311 311 310 310 311 311 311 312 312 313 313 313 313 313 313 314 314 315 315 317
312 312 312 312 311 311 311 311 311 312 312 313 314 315 316 315 315 315 314 314 314 314 314 315 314 312 310 309 308 309 311 313 315 315 315 315 315 314 315 317 316 315 315 315 312 309 308 309 309 309 310 309 308 307 307 307 308 309 309 308 308 309 309 310 310 310 310 310 311 310 310 310 310 310 310 310 311 312 312 312 312 312 312 313 313 313 314 315
311 311 312 312 312 311 311 311 311 311 310 311 312 313 314 315 315 315 315 315 315 315 315 316 315 313 310 309 309 311 313 315 316 315 314 314 314 314 315 317 316 315 315 315 314 311 309 308 309 309 310 309 309 308 307 307 307 307 307 306 306 307 307 307 307 308 309 308 309 309 310 309 309 310 309 310 311 311 311 311 312 312 312 312 312 313 313 314
311 312 312 312 312 311 311 311 311 311 310 310 311 313 313 314 314 314 314 314 314 315 315 316 316 313 311 309 309 312 314 314 314 314 313 313 313 313 315 317 316 314 313 314 314 313 311 308 308 309 310 310 309 308 307 307 307 307 306 306 306 306 305 306 305 306 306 307 308 308 309 308 308 309 309 310 310 310 311 311 312 312 311 312 312 312 313 314
313 313 313 313 312 312 311 311 311 310 310 309 311 313 313 312 311 310 310 310 311 313 315 316 315 314 311 308 309 313 313 313 313 313 313 312 312 312 314 316 316 314 313 314 314 313 312 309 309 309 310 310 310 310 308 307 307 307 306 308 308 307 306 306 306 306 306 307 308 307 308 308 309 309 309 310 310 310 310 310 311 311 311 311 311 312 312 313
312 312 313 312 312 311 311 310 309 309 309 310 312 314 314 313 310 309 308 307 307 309 313 315 314 314 311 309 311 313 314 313 313 313 312 312 311 311 313 315 316 315 314 314 313 312 311 310 310 310 309 310 310 310 310 308 307 308 307 307 307 307 309 307 305 305 305 307 307 307 309 310 310 310 309 310 310 309 309 309 310 310 310 310 311 311 311 312
311 310 310 310 310 310 309 309 309 309 309 311 313 315 315 314 313 311 308 306 305 307 311 313 313 312 310 311 313 313 313 312 312 312 312 311 310 311 312 314 315 314 313 313 311 311 310 309 310 310 310 310 310 309 310 309 308 310 308 308 308 308 310 309 305 305 307 308 306 308 309 308 309 309 308 310 309 308 308 308 309 309 309 310 310 310 311 311
310 309 309 309 308 309 309 309 311 312 312 313 314 315 315 313 311 308 304 303 303 306 309 311 311 310 308 310 312 313 312 313 314 313 311 311 310 310 312 313 312 312 313 312 312 310 308 308 310 310 309 308 308 309 311 311 311 312 309 309 311 309 309 309 306 306 309 308 305 307 309 308 308 308 308 310 309 307 306 307 308 309 309 310 310 310 310 310
308 308 307 307 308 308 309 309 310 312 313 314 313 313 311 308 305 302 302 302 303 306 308 309 309 309 308 310 312 313 313 314 314 313 311 310 310 311 312 311 310 311 312 313 312 309 308 309 308 308 307 307 309 310 310 310 311 311 308 309 311 309 308 308 308 306 306 306 305 307 309 308 308 307 308 310 309 308 306 306 307 308 308 309 309 309 310 310
307 306 305 305 306 307 308 309 309 310 310 310 309 307 304 302 301 301 302 302 303 306 307 309 309 309 311 312 313 314 314 314 314 313 312 311 311 312 312 310 310 312 312 311 309 308 308 308 308 309 308 307 310 311 309 308 309 309 307 308 309 309 308 308 309 307 305 305 306 307 307 307 307 307 307 308 308 307 306 305 306 307 307 308 308 308 309 309
305 304 304 303 303 304 305 306 306 305 304 304 303 302 301 301 301 301 302 303 305 306 307 309 309 311 315 313 312 314 313 314 313 312 312 311 311 311 311 311 311 311 309 308 306 307 308 307 307 310 309 308 309 309 308 309 309 308 308 309 309 309 308 308 308 307 306 307 307 307 307 307 307 307 306 307 307 306 305 306 306 307 307 307 308 308 309 309
304 303 302 302 302 302 302 302 302 301 300 300 300 301 302 302 302 303 303 304 306 309 312 311 310 314 317 312 311 312 312 313 312 312 312 311 311 310 310 311 310 309 307 307 307 307 307 306 306 309 309 308 308 307 307 308 307 307 309 309 310 310 309 308 308 307 306 307 307 307 307 308 307 307 307 307 307 305 305 306 306 306 307 307 307 308 308 309
304 304 302 302 303 302 301 301 300 300 300 300 300 302 303 303 305 306 305 304 307 310 312 313 312 313 314 312 312 312 311 312 312 312 312 311 310 310 311 311 309 308 307 309 310 307 306 308 309 310 310 308 308 307 307 308 307 307 309 309 310 309 307 307 307 307 307 307 309 309 308 307 306 307 307 307 307 306 306 306 305 306 306 307 307 308 309 310
304 304 303 303 302 301 301 300 300 300 300 300 300 302 303 302 306 309 307 307 307 308 309 310 311 311 311 312 313 312 312 312 312 312 312 311 311 312 312 310 309 310 308 307 309 307 306 309 310 309 309 308 308 309 308 308 308 308 308 309 308 307 307 306 307 307 306 307 310 309 308 307 307 308 308 307 308 307 307 307 306 306 307 307 308 308 309 311
303 304 304 303 302 301 301 301 300 300 300 300 300 301 303 303 306 309 308 308 308 308 308 308 308 309 310 310 311 311 312 311 311 312 312 312 312 313 312 310 311 313 310 307 308 309 308 311 311 308 308 307 307 308 309 308 308 308 307 308 307 307 308 307 309 310 307 307 310 309 308 308 308 308 308 308 308 308 307 307 307 307 307 308 308 309 309 311
303 304 303 303 302 302 302 301 300 300 299 299 299 300 304 306 307 308 308 309 309 307 307 308 307 308 308 309 309 310 311 312 311 311 312 312 313 312 310 310 311 313 311 310 311 311 312 314 312 308 308 308 308 308 309 308 308 308 308 308 307 308 309 308 310 312 309 307 309 309 308 308 308 309 311 309 306 307 308 307 308 308 308 308 309 310 310 311
303 303 303 302 302 302 301 300 299 299 299 299 299 300 305 307 308 309 307 307 309 307 305 307 307 308 308 308 309 309 310 311 311 311 312 312 312 312 311 310 310 311 311 312 311 311 313 313 308 307 310 310 309 309 309 309 309 310 309 308 308 308 309 309 309 310 310 310 308 309 310 313 315 315 314 311 307 308 308 307 308 308 309 309 309 310 310 311
304 303 302 302 302 301 300 299 299 298 298 299 299 300 305 308 308 308 305 306 310 308 305 307 307 308 308 309 309 310 310 311 311 311 311 312 313 313 312 310 311 313 313 312 311 310 312 309 306 310 312 309 310 311 312 311 311 313 312 310 309 310 310 309 309 308 312 316 312 309 313 318 319 315 313 312 313 313 309 309 309 307 309 309 308 310 310 311
306 305 303 302 302 301 299 299 299 298 298 299 299 300 305 308 307 306 306 308 312 310 308 309 309 309 309 310 310 310 311 312 311 311 311 311 312 312 312 310 310 313 314 312 311 311 311 308 306 311 312 311 311 311 312 311 310 313 314 312 310 309 309 310 311 310 313 317 312 310 314 316 314 312 313 314 316 315 311 312 312 307 307 308 308 310 310 310
307 306 304 302 302 301 300 300 300 299 300 300 300 301 304 307 306 305 306 308 310 311 310 310 309 310 310 310 310 310 312 312 310 311 310 311 312 310 312 313 309 309 309 309 312 313 312 309 309 310 311 312 312 312 312 310 311 314 313 313 313 311 312 313 312 311 314 315 311 310 313 314 314 314 314 315 314 314 312 312 314 310 306 308 310 311 311 310
307 305 305 303 302 301 300 300 301 301 301 302 302 301 304 307 306 306 307 307 309 311 312 310 309 310 310 310 310 309 310 311 311 312 310 311 312 309 312 314 312 313 309 308 314 313 310 312 313 312 311 312 313 314 314 310 312 316 312 311 313 313 314 314 311 313 315 312 311 312 311 312 318 317 313 313 311 314 316 314 317 315 307 308 312 313 312 313
306 305 305 304 303 302 299 298 300 301 302 304 303 303 305 306 304 306 306 306 309 311 311 311 310 310 310 310 309 308 309 310 311 312 310 311 311 310 312 311 310 315 310 307 313 312 309 310 311 313 314 314 316 314 311 310 311 311 309 310 313 314 315 314 312 313 314 312 312 314 312 311 317 316 313 314 314 317 318 317 320 316 307 307 312 312 312 313
307 306 305 304 303 302 300 298 299 301 304 305 304 305 306 306 305 307 306 307 311 310 308 310 310 310 310 310 310 308 308 310 310 310 310 310 311 309 310 309 308 313 312 310 312 311 308 307 307 311 312 313 316 311 305 309 310 308 309 312 314 316 314 315 316 314 313 315 314 313 312 310 313 317 317 316 316 316 316 317 320 317 309 308 311 312 311 312
307 306 305 304 304 303 301 299 298 301 305 306 305 306 305 306 309 310 307 308 310 310 308 309 309 310 311 312 313 310 309 310 309 310 311 310 310 310 309 309 310 313 315 313 312 311 310 309 310 311 307 307 312 309 304 306 308 310 314 314 315 317 314 315 318 315 314 319 316 311 310 310 312 319 319 315 312 311 312 313 316 318 314 309 310 313 312 312
307 306 306 304 304 303 301 299 298 302 306 306 305 305 305 306 308 309 310 310 308 311 312 312 309 310 312 311 312 311 310 311 309 310 313 312 311 312 311 312 313 315 317 315 314 314 312 311 312 310 307 306 310 312 309 307 308 310 314 316 316 318 317 317 317 315 316 318 313 309 310 310 311 313 313 312 311 310 311 310 310 313 312 308 310 313 311 312
307 307 306 305 304 303 301 300 299 302 307 306 304 305 307 308 306 306 311 312 309 310 312 312 311 311 311 311 312 310 309 311 310 310 311 311 311 311 312 312 312 314 316 312 312 315 315 314 310 310 310 307 309 314 314 313 311 310 313 317 317 317 317 319 317 313 313 314 309 306 309 311 313 313 311 311 311 311 309 308 307 308 308 308 310 312 311 312
307 307 306 305 304 304 302 300 299 303 306 305 304 305 307 307 306 306 309 310 308 309 310 311 310 310 311 312 313 311 310 311 311 311 311 311 312 312 313 312 309 312 315 312 313 315 318 318 312 311 311 307 308 311 315 318 313 310 314 314 315 318 318 319 318 312 312 314 310 306 309 316 319 317 313 311 310 308 305 305 306 307 308 308 308 310 311 312
307 307 306 305 304 304 302 299 299 303 305 304 304 306 305 305 307 308 309 309 309 310 310 309 310 311 312 311 311 310 310 310 310 311 312 312 313 314 315 313 309 312 314 314 315 313 314 317 312 307 305 305 308 307 309 316 314 310 310 311 314 317 314 314 312 309 308 311 312 310 312 318 318 314 311 310 309 309 307 306 305 305 307 307 306 308 310 312
307 307 306 305 304 304 302 299 299 303 305 305 306 306 304 305 310 310 309 311 312 312 311 311 312 313 313 312 311 309 309 309 309 312 311 311 312 312 315 315 310 310 311 312 315 314 313 315 310 305 305 305 306 305 306 312 313 310 309 312 313 309 308 312 310 307 306 308 312 312 313 315 314 312 314 314 313 313 314 314 310 305 302 303 306 308 309 311
308 307 306 305 304 304 302 299 300 303 304 305 306 306 305 306 311 311 310 311 312 312 313 313 313 315 315 314 313 310 310 310 309 312 313 312 313 312 312 313 309 309 311 310 314 316 315 315 309 306 309 305 300 302 306 306 307 311 312 313 309 304 308 312 310 312 312 311 314 312 311 313 311 315 320 317 315 315 315 315 314 310 305 303 306 308 310 311
308 307 306 305 304 304 302 299 300 302 303 305 306 308 308 305 305 307 308 309 310 313 314 313 311 313 315 315 314 310 310 312 311 312 314 313 314 313 312 313 309 308 309 308 313 315 311 313 311 304 307 307 301 304 310 305 303 308 309 308 308 311 315 311 309 315 314 312 315 314 312 310 308 315 320 315 314 316 315 314 314 315 313 307 305 308 312 312
308 306 305 305 304 304 302 299 299 302 303 305 306 307 308 306 302 303 307 308 311 314 314 313 310 310 313 315 315 311 309 312 312 312 314 313 313 313 312 313 311 307 307 308 312 314 309 311 314 305 304 307 306 309 314 310 305 306 306 306 307 312 316 311 310 314 313 312 315 316 316 313 310 315 317 314 314 315 316 315 314 316 312 305 304 307 310 312
307 305 304 304 304 304 302 299 299 302 304 306 307 305 305 305 304 304 305 307 311 312 312 315 312 310 311 311 311 312 311 311 311 311 313 312 313 314 311 311 313 308 306 307 310 312 309 309 313 308 303 306 310 311 312 313 310 308 310 310 308 308 310 310 309 309 313 315 315 314 315 313 312 315 317 315 315 316 315 313 313 315 309 304 306 308 308 311
307 304 303 304 304 304 301 299 300 301 304 305 306 305 303 304 305 305 305 305 309 309 309 315 315 311 311 310 310 312 311 310 310 312 313 310 312 316 312 309 312 309 307 308 310 312 310 310 314 313 308 311 315 310 306 308 310 309 311 312 310 309 310 312 310 308 309 313 314 314 313 311 312 317 316 312 313 318 316 313 315 312 305 306 309 308 308 310
306 304 303 303 303 304 301 299 300 301 303 305 305 304 304 304 305 306 304 304 307 307 308 312 313 310 310 311 311 311 311 311 310 311 313 311 312 314 311 307 307 308 309 311 310 309 310 311 312 314 313 311 308 303 301 304 306 308 310 310 310 310 311 314 315 311 308 307 309 311 312 312 312 315 315 310 311 314 309 308 314 307 303 308 311 309 310 310
304 303 303 302 303 303 300 298 300 301 302 303 303 303 304 305 305 305 305 305 306 307 308 310 310 309 310 310 310 311 311 311 311 310 312 313 312 311 308 306 306 308 312 313 310 308 309 311 312 313 316 312 305 302 301 302 305 308 310 309 308 309 309 311 312 311 310 309 309 309 312 313 312 316 319 316 313 310 302 302 306 303 304 309 311 310 311 310
303 301 301 301 302 302 300 299 300 301 301 302 303 303 303 304 304 305 306 307 306 308 309 308 309 310 310 309 310 312 311 310 310 310 311 312 312 307 304 305 308 311 312 313 313 310 310 313 313 314 318 316 311 309 307 306 306 308 311 309 307 308 308 309 308 307 309 312 313 313 313 311 312 317 319 317 316 314 308 304 302 303 307 310 311 311 311 311
302 300 299 301 301 301 300 301 301 301 301 301 302 303 303 303 303 304 305 306 306 308 309 308 308 309 309 309 309 309 310 309 310 310 309 310 309 305 303 305 309 310 309 308 309 310 313 314 313 312 315 314 313 314 315 313 308 307 311 311 307 308 308 310 310 309 310 312 312 312 312 310 310 313 312 312 313 312 310 306 304 306 308 309 311 311 311 312
301 301 300 299 300 300 300 300 300 300 301 301 301 302 302 303 303 303 304 305 305 307 308 308 308 308 310 310 308 308 309 308 309 309 309 310 311 307 302 303 306 307 306 306 306 309 314 313 311 313 314 311 311 312 313 313 310 311 313 311 307 307 307 309 312 311 311 311 309 309 309 310 310 310 310 310 310 310 310 309 307 306 307 309 310 310 311 311
302 303 300 299 300 299 299 300 299 300 301 302 302 302 302 302 302 303 304 305 305 305 307 308 308 308 310 309 308 309 309 308 308 309 309 312 313 307 301 302 305 305 306 306 306 309 314 312 310 312 312 310 312 312 311 311 313 314 315 312 308 306 306 308 310 310 310 311 309 308 308 308 309 309 309 309 309 309 309 309 307 306 306 308 309 309 309 310
303 303 301 300 301 300 300 300 300 300 301 301 302 303 303 302 302 303 304 304 304 305 306 307 308 308 309 309 308 309 309 309 309 308 309 311 310 307 305 305 304 304 306 307 305 308 314 313 311 312 311 310 312 311 311 311 310 310 311 311 310 307 306 307 308 309 310 310 310 310 310 309 308 308 308 308 308 309 308 308 307 306 307 307 307 307 308 309
301 301 301 301 301 301 301 301 300 300 301 301 302 303 303 303 302 302 303 304 304 304 305 306 306 306 307 309 309 308 309 309 309 309 309 309 309 309 309 308 306 302 305 309 306 306 310 313 312 311 310 310 310 310 310 309 309 308 307 308 309 308 307 306 307 308 308 309 309 310 310 309 308 308 308 308 308 307 306 306 306 306 306 306 305 306 307 308
301 301 301 301 300 301 301 301 300 300 301 301 301 302 302 303 303 302 303 304 304 304 305 305 305 306 308 309 308 308 308 308 308 310 310 308 309 310 310 312 312 305 303 308 308 304 306 311 311 309 310 309 309 310 310 309 309 309 308 307 307 307 306 305 306 307 307 308 308 308 309 309 308 308 308 307 307 307 307 307 306 306 306 306 305 306 307 307
300 300 301 300 301 301 301 301 301 301 301 301 301 302 302 302 303 302 302 303 303 304 305 305 305 307 309 309 308 308 308 307 309 310 309 308 309 308 308 311 314 311 307 306 308 307 307 308 309 310 310 309 310 311 311 310 309 308 307 307 306 306 306 305 306 306 307 308 308 308 308 308 307 308 308 308 308 307 308 308 307 307 307 306 306 306 306 307
298 298 299 300 301 302 302 301 301 301 302 302 302 302 303 303 303 303 303 302 302 303 304 304 305 306 308 308 307 307 307 307 307 308 307 307 308 307 307 307 308 312 310 306 307 308 306 308 311 311 310 310 310 310 308 309 310 308 308 309 308 306 306 306 306 306 306 307 308 308 308 307 308 308 308 308 308 308 308 307 306 307 306 306 307 307 307 308
Wind_Speed
14 15 15 14 13 13 13 13 13 13 13 12 11 10 10 9 9 9 9 9 10 10 11 11 12 13 15 16 18 18 17 20 20 20 23 18 11 11 10 9 10 11 12 11 10 12 13 13 12 11 10 9 8 8 9 11 11 7 2 3 7 3 3 4 4 5 3 2 5 8 8 2 4 10 10 12 14 14 19 22 21 20 22 23 25 27 25 23
15 15 15 14 14 13 13 14 15 15 15 15 13 12 11 11 11 10 11 11 11 11 11 11 12 13 14 16 18 18 20 22 23 27 23 12 7 10 11 12 13 12 11 11 12 13 15 15 12 10 9 7 6 6 7 8 10 8 2 4 7 3 3 5 5 6 4 6 6 11 14 7 6 11 10 9 14 16 16 19 21 20 22 23 25 26 26 26
15 15 14 14 14 13 14 15 16 17 17 17 15 14 14 13 13 12 13 13 13 13 13 13 12 13 14 15 16 18 20 22 27 27 13 4 8 11 12 14 14 12 9 11 13 14 15 14 11 9 7 7 7 7 6 5 7 8 5 5 6 4 4 7 8 10 11 12 8 11 19 15 11 14 11 8 11 15 12 14 16 18 23 25 25 27 27 26
15 14 14 14 14 14 15 16 17 19 19 19 18 16 16 16 15 14 15 15 15 15 15 14 13 14 14 15 15 16 19 20 22 14 3 6 14 13 12 13 14 12 11 12 13 12 10 9 7 7 6 5 6 7 5 6 6 5 6 5 4 4 4 9 13 15 17 17 13 13 17 17 18 19 16 11 10 12 14 20 21 22 28 29 29 31 29 26
15 15 15 15 15 15 15 16 18 19 20 20 19 19 18 18 17 17 17 17 17 17 17 16 16 16 15 15 14 14 13 11 6 3 4 14 16 14 14 14 14 13 12 13 12 7 4 5 6 6 5 3 3 3 4 11 10 3 5 7 6 5 4 10 16 19 21 20 17 12 12 18 20 19 19 14 11 12 18 28 29 29 31 31 34 34 31 29
17 17 17 16 16 16 16 17 18 19 20 21 20 20 20 20 20 19 19 19 19 19 19 18 18 17 16 14 13 12 6 4 7 9 16 19 16 15 14 14 14 11 11 12 10 6 3 4 7 7 5 2 3 4 6 12 12 5 5 6 10 11 7 11 18 21 22 18 13 11 14 19 15 14 19 19 20 23 29 36 37 36 36 37 38 37 35 36
18 18 18 17 17 17 17 18 19 20 20 20 21 21 21 21 21 21 21 20 20 20 20 20 19 18 16 14 12 11 11 17 20 18 19 17 14 14 13 14 11 9 9 9 8 6 4 5 9 9 4 2 4 5 9 11 9 6 5 5 13 18 13 16 22 24 24 19 19 21 19 17 13 14 19 23 29 32 35 39 41 39 38 38 38 39 38 41
20 19 18 17 17 17 17 18 19 20 21 21 21 21 22 22 22 22 22 21 21 21 21 20 19 18 16 13 11 11 18 23 19 12 13 13 12 12 12 12 9 8 9 9 9 6 6 6 10 9 3 3 4 4 6 6 4 5 6 8 12 17 18 22 25 25 26 24 27 26 17 18 25 22 20 30 37 38 40 43 44 40 37 38 39 41 41 43
21 20 19 18 18 18 18 19 20 21 22 22 23 22 22 22 22 22 22 22 21 20 21 19 19 18 16 13 8 9 18 18 13 11 12 11 11 11 11 10 8 9 9 10 9 6 7 6 9 9 6 5 5 5 2 1 3 4 8 9 8 14 19 22 21 22 25 25 24 19 12 23 32 23 20 32 36 37 41 42 42 38 38 40 40 42 42 43
21 21 21 20 19 20 20 20 21 22 22 23 23 23 23 23 23 22 22 22 21 21 20 17 18 17 16 13 5 6 15 13 11 13 12 11 12 11 10 9 8 9 9 10 10 9 8 7 6 8 10 6 3 4 2 3 4 4 7 9 10 16 20 20 18 23 25 20 20 15 12 25 29 17 12 17 22 27 28 31 36 36 36 38 37 39 40 42
21 22 22 22 21 21 22 22 22 23 23 23 23 23 23 23 23 22 22 21 21 20 19 17 17 16 16 14 10 10 16 14 14 17 16 14 12 11 10 10 9 9 9 10 10 10 10 9 6 4 6 4 2 4 3 5 6 6 8 9 13 14 17 18 16 23 18 11 20 18 13 21 19 13 13 19 30 30 25 33 43 41 40 41 41 42 43 45
22 22 22 22 22 22 23 23 24 24 24 23 22 23 22 23 23 21 21 21 21 20 19 17 16 17 16 16 21 22 20 18 19 21 21 16 13 12 10 10 11 9 9 10 10 10 10 9 8 6 5 3 1 2 3 4 6 7 5 6 11 9 11 15 13 18 10 7 20 13 8 13 9 15 26 34 41 34 30 40 46 42 42 43 44 44 43 46
23 23 23 22 22 23 23 22 23 24 24 24 23 22 22 22 22 21 21 21 21 19 18 16 16 17 14 16 26 25 20 20 21 22 21 17 13 12 10 10 11 11 11 10 10 11 10 10 9 10 10 5 2 3 6 6 6 8 3 1 7 7 8 9 6 8 4 8 15 5 4 8 4 17 29 33 34 29 29 37 39 37 38 41 42 41 42 46
21 23 24 23 22 22 21 21 21 22 23 23 23 23 22 22 22 22 21 21 20 18 16 16 15 15 14 19 25 23 21 21 21 21 21 17 14 12 11 10 11 11 11 10 10 10 10 10 8 8 9 8 6 6 7 6 4 5 3 1 3 3 6 6 4 1 1 8 8 8 5 7 6 18 26 28 27 23 23 30 34 34 35 38 38 38 41 43
19 21 21 20 19 19 19 19 20 21 22 23 23 23 22 21 21 21 20 20 18 16 14 13 13 11 12 21 24 20 19 18 17 17 16 15 13 12 11 10 11 10 10 10 10 11 11 8 6 5 5 6 6 4 4 4 2 2 2 4 2 3 5 8 8 4 6 7 5 9 5 7 12 17 21 21 18 16 19 27 31 30 33 35 35 36 39 40
18 18 18 18 16 16 17 18 19 20 22 23 22 21 20 20 20 20 19 18 16 14 11 9 10 9 7 14 17 15 15 13 11 10 11 12 11 11 10 10 10 10 10 10 11 11 9 6 4 4 3 2 1 2 2 4 4 1 2 6 4 4 5 7 7 5 7 4 2 7 4 7 11 12 15 17 18 21 20 25 29 31 33 33 34 36 37 39
17 16 17 16 16 17 18 18 19 20 20 21 21 19 17 17 17 17 16 15 13 11 8 5 5 7 10 14 15 15 14 12 10 10 9 9 10 11 10 9 8 8 9 9 10 8 5 5 3 2 2 0 2 4 2 3 5 2 1 4 5 5 4 5 7 5 2 3 3 5 4 13 18 14 20 25 28 27 22 25 30 32 34 32 33 35 37 40
17 16 16 16 16 18 19 19 19 20 20 19 18 16 14 13 13 13 13 12 10 5 5 7 3 2 11 14 11 11 11 10 10 10 9 9 10 11 10 8 6 6 5 4 5 3 5 4 1 1 1 1 2 4 3 5 4 3 2 3 4 4 5 6 7 5 3 1 6 6 7 18 22 16 18 27 29 24 23 27 31 33 33 31 31 33 37 39
16 16 16 16 15 17 18 18 19 19 19 17 14 11 9 8 7 9 10 10 11 5 3 11 12 4 5 6 5 6 5 6 8 9 10 9 10 11 11 8 5 4 2 1 2 4 5 2 2 1 1 4 5 6 9 6 1 3 4 3 4 5 6 8 9 6 2 5 10 9 12 17 19 16 15 23 26 20 23 27 29 32 30 28 29 33 37 40
16 16 17 16 15 16 16 16 18 17 16 14 10 7 6 5 4 5 9 15 19 18 12 14 18 15 10 5 4 5 5 6 7 9 10 10 11 11 10 7 4 3 2 2 3 2 4 2 2 6 7 8 8 9 9 3 3 1 1 2 5 6 8 9 10 8 2 3 10 10 12 14 16 18 17 22 23 16 18 19 22 28 26 25 29 34 38 39
16 16 16 16 17 17 15 16 17 15 14 12 9 9 6 6 4 2 6 14 22 26 25 23 22 22 20 12 6 4 5 7 8 9 11 11 11 9 9 7 4 1 3 3 3 1 3 3 7 11 10 9 8 8 7 5 4 4 3 5 6 5 10 12 10 10 2 4 8 8 9 14 17 19 19 20 17 13 15 14 17 25 24 25 29 33 37 37
16 16 16 16 15 15 15 15 15 14 13 11 11 13 9 7 7 5 5 9 17 22 25 27 28 30 30 24 18 11 8 7 8 11 13 14 14 10 7 6 4 2 2 2 3 1 1 4 11 11 7 5 5 5 6 7 7 6 4 4 6 4 7 10 7 5 1 3 7 9 9 14 19 19 18 17 12 14 21 19 21 24 21 22 26 29 33 33
16 16 17 17 14 14 14 13 13 13 12 11 13 16 11 8 8 6 5 7 13 19 22 25 29 35 35 30 25 19 13 8 8 12 15 16 16 11 7 6 4 2 2 3 5 3 3 6 10 6 6 7 3 3 5 5 4 5 4 3 6 5 2 6 4 4 4 3 7 10 9 12 15 13 13 13 11 14 22 22 23 25 23 24 25 26 28 28
18 17 18 17 15 15 14 13 13 11 12 13 12 13 12 10 7 4 5 5 8 11 16 20 22 27 29 24 20 20 18 13 9 11 17 20 16 10 7 6 4 2 3 6 7 5 7 7 3 4 7 7 4 2 4 4 3 4 6 6 7 8 6 8 5 7 8 5 3 7 8 8 7 7 9 9 8 10 14 15 18 22 24 24 25 26 26 26
20 19 18 16 16 16 14 13 13 11 12 12 9 12 13 10 4 2 3 3 5 5 7 10 10 12 15 13 12 15 16 15 14 12 15 21 19 9 4 6 5 4 5 6 5 6 10 8 4 3 3 6 5 4 5 6 4 4 6 11 12 10 9 9 7 8 6 5 3 5 7 7 5 8 11 8 5 7 8 7 11 18 20 20 22 25 25 24
22 21 19 17 15 14 12 12 12 11 11 9 9 13 14 9 5 2 2 3 4 4 2 4 5 4 5 8 11 12 6 7 14 17 14 19 21 11 4 4 3 3 5 5 3 4 5 3 3 4 4 6 5 5 5 7 3 4 4 9 11 9 7 7 6 3 2 6 4 4 1 6 9 11 9 4 6 12 10 5 7 13 16 16 18 19 20 19
23 22 19 15 13 12 12 12 11 10 8 7 9 14 14 11 7 4 3 4 4 2 4 4 5 4 4 9 16 13 3 2 8 15 16 17 18 12 5 4 2 2 3 3 2 3 2 1 2 2 4 5 4 5 5 7 5 4 3 3 5 5 5 5 3 2 3 5 5 2 4 4 8 9 6 2 9 14 13 8 6 8 9 10 9 10 9 9
21 19 17 14 13 13 14 13 11 11 9 7 10 14 15 12 9 5 4 2 3 2 4 3 5 4 4 13 17 8 1 3 5 7 14 17 16 9 5 6 6 4 3 4 4 4 2 2 3 4 3 3 5 4 6 9 5 5 2 2 3 4 4 4 3 3 2 3 5 2 4 1 6 9 6 4 7 12 11 9 7 6 9 11 12 9 6 1
17 15 16 14 13 13 15 17 16 12 10 9 11 14 16 13 7 4 3 1 2 3 3 4 6 4 6 12 11 2 2 2 2 4 10 13 14 6 2 6 7 3 3 4 6 5 1 2 4 6 4 4 5 3 5 9 5 3 2 2 1 2 1 1 2 2 1 2 6 4 3 2 6 9 7 3 3 7 7 7 6 7 8 13 15 11 6 2
17 15 16 15 15 15 16 20 18 13 12 13 13 15 16 11 5 3 2 4 2 2 3 5 5 4 7 8 3 3 1 1 2 7 7 6 10 5 0 3 5 3 1 2 5 6 4 1 1 3 4 5 4 1 2 5 4 1 3 2 3 3 2 2 1 1 1 3 6 4 2 2 3 7 5 3 3 4 3 5 7 8 9 14 18 12 5 3
20 17 17 18 19 17 16 19 17 15 17 16 16 19 15 5 3 3 6 4 1 1 4 3 2 4 8 6 1 1 1 1 2 6 4 2 5 3 1 2 2 2 2 4 5 5 5 2 2 3 4 4 5 2 1 1 2 3 3 2 4 4 3 3 3 2 0 4 4 3 2 3 4 7 5 5 6 5 3 5 8 9 9 14 18 12 5 5
22 19 18 20 20 17 17 16 14 18 20 19 21 20 12 1 1 4 5 2 0 3 3 3 2 3 6 3 2 3 2 1 2 4 4 3 3 4 3 4 3 2 2 5 3 4 4 6 3 1 3 5 5 2 1 3 3 4 2 3 3 4 3 3 2 0 3 5 3 2 2 2 6 10 11 14 16 12 7 7 10 9 9 15 19 12 8 9
23 22 20 21 21 18 16 14 13 20 21 22 23 14 7 1 5 6 5 2 1 2 2 4 2 3 6 3 2 4 2 2 3 2 2 2 3 4 5 4 4 2 1 3 1 2 4 4 0 2 2 4 7 4 2 1 2 4 4 3 2 0 2 3 3 2 3 4 3 3 2 3 5 8 11 14 16 13 8 9 13 14 16 20 20 17 16 14
23 24 24 23 22 18 15 14 15 21 22 24 20 8 4 6 5 5 9 6 1 1 2 4 4 4 4 3 3 4 3 3 4 4 2 2 2 4 5 6 5 2 2 2 1 2 2 5 2 3 1 1 5 5 4 5 3 3 4 5 3 4 3 4 3 2 4 4 4 3 1 3 3 4 7 10 11 10 11 14 16 19 22 21 20 22 25 20
23 26 25 23 24 22 16 16 18 21 24 23 13 4 6 9 3 4 7 5 1 1 2 2 5 4 2 3 3 4 4 3 3 5 3 3 4 3 4 6 7 5 3 2 3 2 2 5 4 1 1 1 1 3 2 6 3 2 3 5 2 4 4 2 2 3 2 4 4 2 3 5 4 9 14 12 11 10 11 13 12 16 21 19 20 25 28 25
24 28 27 25 28 25 19 19 21 22 24 20 8 5 10 7 3 5 5 4 5 5 5 2 3 4 3 2 2 4 3 2 3 3 2 3 3 4 4 5 8 11 8 5 3 2 2 4 4 2 1 1 1 3 1 1 2 1 3 3 4 4 5 2 2 1 3 2 4 1 4 5 4 9 12 8 8 8 8 7 7 11 13 13 18 22 22 23
29 31 30 30 30 25 20 21 22 23 22 14 7 9 8 4 5 6 4 4 5 7 8 3 3 4 4 2 3 5 3 1 3 3 3 3 3 6 5 4 7 14 15 8 3 2 3 3 3 2 1 2 1 1 2 3 2 3 3 4 3 2 4 3 1 4 3 2 5 2 4 5 1 4 8 8 9 10 8 7 6 9 8 6 13 16 15 16
34 33 31 33 31 25 21 21 22 23 17 9 11 12 4 4 7 5 5 5 5 6 5 4 5 5 5 4 3 5 5 3 4 4 3 2 4 5 6 4 7 14 17 11 3 3 3 2 4 1 2 3 3 1 0 3 3 3 3 2 2 3 1 2 1 1 1 3 5 4 6 5 4 4 6 8 11 11 10 9 7 8 7 7 13 15 12 11
36 28 25 32 33 26 23 24 24 20 12 8 13 11 3 4 5 4 9 7 4 4 5 5 5 2 3 6 3 4 6 6 6 5 3 3 4 4 6 5 5 8 14 14 6 2 2 2 4 1 2 2 3 1 3 1 2 2 2 3 2 2 3 3 2 3 3 2 3 5 6 4 6 6 5 8 10 9 9 9 8 8 7 10 15 15 11 9
38 20 14 27 33 29 26 26 23 16 8 6 9 7 3 3 5 9 15 10 3 4 4 4 6 3 3 4 2 4 5 5 7 5 3 4 4 4 6 6 3 3 7 9 5 1 2 2 3 3 3 0 2 3 5 6 4 2 2 1 1 1 1 0 1 2 4 3 1 2 6 8 6 5 7 10 9 7 7 8 8 8 10 14 16 14 12 8
36 13 9 22 28 31 31 24 16 9 4 5 6 4 3 2 4 10 17 14 6 4 3 3 6 5 4 5 3 4 5 4 6 5 3 5 4 4 6 8 8 7 6 4 3 3 3 3 3 2 1 3 5 4 3 5 5 4 5 5 5 4 3 1 3 1 3 3 4 2 5 11 6 4 7 8 7 6 6 6 7 8 12 16 16 15 14 10
30 8 10 23 26 35 35 16 7 6 5 8 5 3 4 3 3 6 11 13 8 3 2 3 4 4 4 5 4 5 6 4 6 6 4 6 7 6 5 10 15 13 9 4 3 4 3 3 2 3 4 5 5 3 1 2 2 3 4 4 5 4 4 4 4 3 1 2 2 4 2 10 6 4 5 4 4 6 5 5 6 9 14 15 15 16 16 12
26 10 11 22 29 41 32 6 5 8 6 6 2 1 5 3 3 5 6 8 6 3 3 3 3 5 5 4 4 6 6 5 6 7 5 5 7 7 7 15 19 12 6 3 2 3 3 2 2 3 4 2 4 3 1 2 2 2 4 3 5 5 3 4 4 3 3 3 2 4 3 10 6 3 5 5 4 5 6 7 7 9 16 17 15 16 17 15
24 13 13 25 37 43 27 5 8 13 9 5 3 5 6 4 5 7 6 7 5 4 5 5 4 5 5 4 5 7 7 6 6 7 6 4 5 6 9 21 22 10 4 4 5 8 5 2 3 1 4 4 5 4 2 3 1 3 4 4 6 7 4 3 1 1 1 5 7 5 6 12 5 2 3 4 3 5 7 6 6 7 14 18 19 19 19 17
15 9 13 30 45 42 22 6 5 9 11 11 9 9 8 6 7 11 10 7 6 5 5 5 5 5 4 4 4 5 8 7 5 5 5 4 3 3 8 20 21 10 5 4 7 12 8 3 5 5 4 6 4 3 4 3 2 3 4 5 8 11 10 5 2 3 4 6 6 6 10 14 9 6 9 8 6 9 9 5 6 11 16 21 26 27 26 24
11 5 6 19 33 34 23 12 5 3 9 12 8 8 12 10 6 10 12 9 9 9 3 2 3 5 5 6 5 5 7 7 5 4 4 5 4 2 3 14 16 8 4 5 11 11 3 2 6 8 9 10 7 7 6 4 5 4 6 9 10 12 13 7 3 4 6 5 5 11 15 18 19 17 15 13 11 10 10 9 9 14 19 24 29 33 34 33
8 7 7 10 15 18 18 15 10 4 4 9 7 5 13 14 7 7 13 12 10 10 4 2 4 6 7 10 9 7 7 6 6 6 4 5 3 1 1 5 9 7 2 4 9 9 3 2 8 10 12 12 9 9 6 5 6 8 8 10 11 11 13 11 8 8 7 5 10 14 14 17 26 24 17 17 15 9 9 11 11 16 24 29 31 31 32 34
8 5 14 19 11 6 12 16 16 11 6 7 8 6 10 15 13 11 12 8 6 10 9 6 9 14 13 11 9 8 6 6 9 8 5 4 3 1 2 1 3 5 4 2 4 5 3 4 6 8 12 12 9 9 6 4 6 6 8 10 11 12 15 16 16 13 10 10 14 14 12 18 26 24 18 17 13 8 11 16 17 21 28 30 27 25 28 33
11 4 11 22 11 5 17 22 17 15 12 8 8 9 12 17 19 15 9 4 5 11 11 11 16 19 15 9 8 9 8 9 11 8 5 5 5 4 2 2 1 2 4 4 2 2 2 3 4 7 9 10 9 10 8 7 9 10 11 12 10 13 16 18 18 17 16 20 20 15 17 22 22 20 19 15 10 10 15 19 21 26 28 25 21 23 30 35
10 4 5 15 8 4 14 16 10 10 12 10 9 11 13 16 19 14 8 9 11 9 11 19 23 15 10 10 9 13 16 14 12 7 6 6 5 4 4 4 3 1 3 4 2 2 3 3 2 4 4 7 7 8 9 10 12 16 19 15 11 12 13 14 15 13 16 22 19 15 20 23 18 17 19 16 13 15 18 19 24 33 30 21 21 28 33 36
10 7 4 5 4 5 9 9 8 8 9 9 11 12 13 16 15 10 8 14 17 12 13 22 22 7 6 11 15 21 24 16 10 8 11 11 10 9 8 6 6 5 4 4 2 3 4 3 2 5 2 6 5 7 11 11 12 19 24 18 14 12 11 12 13 13 16 18 16 15 17 18 16 16 17 15 13 15 17 17 24 33 28 19 23 31 33 36
11 11 10 6 3 7 8 6 9 10 8 10 15 16 14 14 10 8 8 13 20 22 17 17 14 6 5 14 21 24 22 16 15 13 14 17 17 15 13 10 10 9 7 5 3 3 5 4 2 3 4 6 4 5 6 5 8 16 17 13 16 18 16 15 15 16 18 16 14 15 17 17 15 13 15 18 16 15 17 20 25 29 25 22 27 32 34 39
Wind_Direction
244 243 243 242 242 244 247 253 259 264 268 272 274 274 274 272 272 271 274 283 288 289 289 289 290 290 292 293 295 299 303 303 303 298 297 305 300 290 305 314 310 305 297 288 274 261 255 254 255 259 265 261 252 248 243 234 219 210 180 225 242 221 201 200 190 207 204 260 262 272 265 236 294 286 293 293 284 282 281 278 274 265 258 255 258 260 257 257
245 246 246 245 246 247 249 253 257 262 265 268 270 271 271 270 272 271 274 280 283 285 284 285 287 287 289 291 295 298 301 302 300 297 298 303 290 291 300 305 311 306 296 289 279 268 259 256 256 260 263 245 231 230 229 224 208 200 158 226 238 198 200 205 201 221 233 258 264 275 275 267 268 284 303 298 287 290 289 287 285 277 268 263 257 256 258 259
246 247 248 249 250 250 252 254 257 260 262 265 266 268 268 268 271 271 275 279 281 283 283 284 285 286 288 291 297 301 306 307 302 299 294 304 318 311 301 299 306 304 299 299 295 281 262 251 253 259 248 229 222 218 216 206 204 211 204 238 246 212 238 246 245 250 254 268 278 281 281 278 271 279 286 279 281 283 274 276 281 275 273 272 259 253 261 265
246 248 250 251 253 253 254 255 258 260 262 263 263 265 266 267 269 269 273 277 281 283 284 285 283 284 287 291 300 306 314 314 304 292 236 319 323 313 303 300 300 300 297 304 307 294 263 231 232 239 227 229 224 218 217 202 210 215 204 235 243 200 249 259 262 266 265 269 267 271 282 281 279 279 269 262 276 274 266 269 267 266 271 273 265 263 271 277
245 249 251 252 255 257 258 258 260 261 262 263 263 264 265 267 267 269 271 274 279 282 284 286 285 285 286 291 299 306 319 326 303 233 283 315 316 305 302 300 298 296 293 304 308 294 251 201 210 222 220 234 217 210 229 218 219 231 227 246 252 226 243 263 267 270 267 267 265 266 273 276 280 275 261 250 251 258 270 273 270 269 272 273 273 274 278 280
248 250 252 254 256 257 259 261 262 263 263 264 264 265 265 266 267 268 270 273 276 280 283 284 284 284 285 291 296 299 301 273 275 292 305 307 303 300 298 296 297 291 294 306 303 281 227 196 205 211 204 226 215 202 240 230 219 237 256 256 264 254 242 261 266 268 269 267 264 262 265 275 279 275 269 254 249 261 271 273 273 272 271 273 273 274 276 278
250 252 253 254 255 257 259 261 263 264 265 265 266 266 266 266 267 267 267 270 273 277 280 281 283 283 285 289 291 287 252 260 290 301 298 298 298 297 293 295 291 280 297 309 295 271 239 214 210 211 187 234 229 211 246 244 214 226 266 271 268 263 255 264 268 270 271 266 267 270 272 279 271 270 277 264 261 268 272 274 273 272 272 272 272 273 275 276
249 251 252 253 254 257 259 261 264 266 267 267 267 266 267 267 267 267 267 268 271 274 277 280 284 283 285 285 289 285 260 274 304 306 289 295 295 292 289 289 278 269 294 305 297 271 247 234 226 223 201 240 225 214 250 256 222 211 247 260 266 268 267 271 271 271 271 269 273 272 269 268 265 269 272 265 267 271 272 274 273 272 271 270 271 272 272 273
251 251 250 250 252 254 256 260 263 266 268 269 269 268 267 268 268 269 269 270 271 273 275 279 283 282 283 279 282 282 273 287 310 298 294 297 290 287 281 276 266 268 282 293 298 278 251 238 237 232 229 252 237 241 250 238 242 207 240 260 274 277 277 276 273 272 272 270 271 270 267 267 269 274 268 262 267 273 273 273 274 274 272 271 271 271 271 272
252 251 249 248 250 253 255 258 262 265 266 268 269 269 269 269 268 269 270 272 272 273 274 276 278 278 275 269 247 258 280 295 299 296 301 294 287 281 269 262 259 266 272 279 287 284 265 244 255 244 241 258 237 243 202 185 256 262 276 285 277 275 278 278 272 271 271 271 267 260 261 267 270 268 257 264 271 273 274 275 276 274 272 271 270 270 272 272
253 253 251 250 251 253 256 259 261 263 264 265 267 268 270 270 270 269 270 272 272 272 272 272 273 271 269 259 222 240 277 289 290 294 294 288 285 271 259 252 251 259 262 268 272 278 271 249 256 244 237 255 240 256 225 225 274 295 310 306 284 284 282 271 263 266 268 275 264 251 254 267 269 258 254 275 274 268 270 273 273 270 269 270 270 271 271 271
255 255 255 254 253 254 256 260 261 261 261 262 264 266 268 269 270 270 270 272 271 271 270 269 267 263 263 250 240 257 280 285 286 287 285 285 277 263 257 246 246 252 253 260 263 266 267 254 246 235 239 252 272 293 250 262 308 305 323 315 296 314 295 270 257 260 249 254 263 255 273 271 255 255 264 273 271 266 262 264 267 266 267 269 270 270 269 271
257 258 260 259 258 258 258 261 262 259 259 260 263 264 266 269 270 271 272 272 271 271 270 266 261 260 259 251 257 273 284 283 284 281 278 279 269 257 250 244 244 246 248 254 259 260 259 257 248 243 250 249 247 280 280 302 328 310 310 294 307 326 298 278 262 259 225 250 255 219 277 272 236 256 264 272 272 265 256 258 264 265 266 267 267 268 268 271
261 261 263 263 263 263 260 261 261 258 258 260 262 263 267 269 270 272 273 273 271 270 268 262 258 256 251 257 270 281 282 281 281 277 275 271 261 249 242 244 243 242 248 253 262 265 262 263 255 247 251 247 252 275 298 324 343 315 308 274 317 297 281 291 300 317 293 270 227 174 246 276 269 265 268 278 278 265 254 258 263 264 264 265 265 266 268 271
262 264 265 264 263 263 262 260 259 259 258 260 263 265 268 270 271 272 272 271 269 266 263 258 255 252 256 269 278 282 280 280 278 275 270 258 250 243 237 237 238 240 247 258 270 272 270 263 239 237 250 249 255 274 312 341 359 1 298 285 277 222 271 297 287 244 245 276 168 167 250 278 261 265 273 283 282 267 255 259 266 266 265 264 264 265 268 272
261 264 265 263 261 261 261 260 261 260 260 262 263 265 268 269 269 270 270 267 261 259 255 252 256 250 263 280 280 279 277 276 275 271 254 239 233 234 233 231 236 242 251 265 274 271 264 240 218 235 244 243 185 118 12 339 319 351 206 258 258 239 288 312 290 242 220 259 174 193 247 282 265 264 271 275 278 277 270 267 269 268 266 263 263 266 269 273
258 261 264 263 260 260 260 261 263 262 263 264 264 265 265 265 266 266 266 260 251 246 240 244 265 260 260 268 273 276 273 267 264 259 245 229 221 224 224 224 230 244 254 265 267 262 228 202 204 241 238 25 117 105 42 291 268 274 179 252 260 243 274 300 294 296 195 162 238 236 236 266 269 273 276 275 274 274 271 268 268 266 265 264 263 266 268 271
254 256 259 261 261 262 261 262 263 264 265 265 266 267 263 262 262 258 256 246 230 220 236 232 198 308 267 254 260 274 271 258 250 242 231 218 216 218 216 219 228 244 250 253 251 208 172 188 174 252 24 35 155 130 185 231 231 236 196 237 275 261 256 263 268 303 7 260 265 272 259 265 272 277 276 275 271 263 260 263 266 266 265 264 263 265 267 270
249 252 254 257 260 262 264 265 264 265 264 264 267 265 261 262 256 254 246 212 190 177 224 212 190 188 260 237 247 272 264 246 234 223 216 211 213 212 207 212 214 209 171 130 230 174 159 138 73 205 234 211 204 180 204 223 121 205 200 206 266 281 266 255 254 265 328 294 277 268 264 269 278 284 278 276 272 258 256 262 264 265 265 263 263 263 265 267
248 250 252 255 259 261 266 268 267 266 263 261 256 239 237 238 236 254 226 207 215 227 234 221 213 225 244 255 274 266 238 226 222 212 206 205 205 202 197 195 182 172 145 158 209 190 161 157 215 222 221 210 205 204 218 259 29 216 222 268 269 277 278 270 270 273 174 250 274 260 263 274 280 283 280 279 279 261 253 259 261 264 263 260 260 261 264 266
247 250 253 254 257 261 265 267 269 265 259 254 230 208 214 213 213 258 226 230 244 244 244 245 242 244 249 249 250 248 228 224 223 209 201 198 188 186 195 183 141 165 234 174 149 158 149 183 239 231 222 211 198 200 222 258 278 272 281 293 287 272 277 276 279 290 213 184 266 267 279 286 282 282 280 279 279 266 258 255 257 263 262 258 258 259 264 268
247 248 253 254 257 262 262 263 267 263 256 248 220 208 212 212 217 246 263 269 270 259 251 249 246 249 250 244 241 245 239 231 228 211 198 188 182 186 193 169 150 208 228 130 114 235 206 231 252 242 204 180 185 183 196 224 244 261 264 293 290 272 292 286 281 311 349 170 270 294 303 290 281 279 278 276 271 265 264 256 253 260 261 257 256 259 264 270
245 243 252 260 262 261 260 262 264 261 253 242 225 216 215 211 214 246 279 284 280 270 257 247 242 245 246 243 240 235 229 228 226 215 203 190 185 192 186 158 170 188 162 175 170 185 228 242 256 248 150 154 197 190 175 207 235 236 230 254 272 272 328 284 283 349 325 254 270 295 300 281 279 281 278 272 252 257 268 264 259 259 258 258 259 263 265 267
253 252 258 266 268 262 264 266 262 256 249 244 233 216 209 210 214 272 290 273 283 271 254 248 243 243 246 246 241 227 221 224 223 216 206 195 181 177 192 175 160 183 209 206 193 213 244 238 223 86 118 157 194 210 173 199 250 234 214 212 248 260 240 242 285 335 315 291 279 313 309 278 278 293 291 281 252 256 271 273 269 263 260 261 261 262 262 263
268 268 267 266 268 266 263 264 261 254 247 245 232 204 197 201 200 342 330 293 292 273 246 244 239 244 243 235 224 211 212 223 226 218 207 200 186 163 181 182 170 220 215 192 192 241 259 247 191 119 122 158 183 231 199 186 240 284 225 212 227 243 243 252 297 335 336 320 335 16 339 286 285 293 284 289 297 289 275 259 268 270 269 269 265 263 261 258
271 274 273 268 267 266 254 253 258 253 246 239 214 195 190 184 158 115 53 37 302 264 180 199 200 202 207 188 179 173 184 234 223 215 209 204 197 177 155 172 176 225 193 166 186 239 266 258 177 186 183 167 188 248 225 172 188 298 249 210 217 231 250 265 283 317 327 290 286 78 57 276 300 299 275 277 315 302 290 265 260 269 274 274 273 274 269 258
262 268 274 269 261 250 233 237 245 234 231 224 197 187 183 174 153 142 59 20 291 224 132 170 179 168 184 171 163 154 149 216 189 204 204 198 198 188 185 187 155 225 188 140 252 241 191 88 85 145 161 170 199 245 220 161 154 262 258 167 176 206 231 231 222 227 241 283 294 137 154 257 297 291 265 300 314 301 298 297 281 277 293 306 311 309 291 256
258 261 265 262 257 245 225 228 232 215 210 201 182 177 174 169 159 136 86 10 269 136 118 164 153 152 162 164 168 157 102 143 129 195 197 191 195 188 208 206 167 202 197 153 237 265 128 157 187 153 136 184 209 225 196 166 172 254 250 106 134 180 203 191 185 248 274 342 310 224 153 245 276 275 287 336 307 293 298 308 308 308 327 350 4 4 360 198
253 253 255 255 259 253 231 224 223 212 199 177 166 168 165 162 157 108 86 211 229 109 121 155 146 148 135 152 183 212 56 125 104 167 177 187 198 189 232 204 166 178 219 180 230 274 320 203 188 150 150 213 216 230 188 176 198 253 119 93 40 88 104 115 169 258 358 335 279 244 174 245 274 281 300 343 267 261 282 303 303 296 316 354 9 10 11 42
244 248 250 248 245 242 233 225 216 200 180 168 160 157 157 156 131 93 195 227 226 100 116 145 160 160 131 134 211 275 194 318 80 138 149 178 196 197 257 183 147 132 272 270 248 264 274 242 159 174 194 192 170 151 181 182 196 73 75 41 344 8 28 27 81 66 32 264 272 273 213 206 282 284 267 236 231 238 290 311 302 298 308 336 354 2 2 9
239 241 241 241 237 231 229 226 212 185 171 164 154 150 150 145 82 139 213 229 234 115 109 131 172 140 139 139 188 207 177 310 105 136 139 136 177 193 142 158 130 81 337 290 265 279 280 233 229 228 196 147 113 107 355 56 118 96 65 36 345 328 355 11 0 44 194 248 273 295 257 181 232 268 255 252 269 259 261 279 284 293 297 314 335 351 339 319
236 235 237 237 238 233 225 223 205 182 171 156 153 152 141 123 263 195 228 303 307 196 152 155 192 154 153 137 165 175 144 197 179 141 150 142 162 200 217 199 175 77 311 255 269 316 274 232 217 187 187 160 131 125 341 9 66 105 101 67 22 328 339 340 306 241 228 252 275 281 262 206 233 262 272 277 280 274 255 244 256 270 278 294 311 324 316 301
231 231 234 232 235 235 224 220 195 181 171 154 156 150 109 187 229 190 206 271 232 193 128 121 110 129 145 137 209 186 145 201 193 151 162 137 161 226 257 231 180 116 207 207 269 327 293 296 238 150 229 189 168 176 216 256 115 139 152 135 135 208 314 285 271 288 276 268 281 280 265 265 268 268 259 259 269 276 276 259 255 261 267 277 287 295 299 294
226 228 229 226 232 235 225 218 194 180 173 161 156 128 103 219 229 169 194 226 255 44 62 98 94 99 141 185 230 185 158 216 178 143 149 125 158 232 249 231 197 120 102 154 184 179 233 303 257 170 269 206 194 209 177 144 140 174 161 135 156 168 181 252 241 241 282 291 293 307 286 217 221 273 265 254 261 271 274 270 264 261 264 270 277 284 288 284
224 227 226 223 227 226 219 213 196 180 176 168 151 126 201 214 210 164 198 209 179 91 44 64 96 105 204 259 262 215 198 218 160 129 160 172 182 205 203 206 193 163 138 173 230 171 178 266 270 249 284 120 228 265 128 113 134 218 135 113 183 186 165 237 219 187 263 309 290 266 239 222 225 285 290 286 285 284 282 283 277 266 268 273 275 276 276 271
220 221 220 219 221 219 214 206 192 180 178 170 154 209 216 212 171 181 195 168 165 147 118 84 89 114 241 268 256 237 214 184 150 142 197 201 204 210 208 211 188 181 180 173 202 168 148 270 292 351 313 99 185 271 349 106 203 179 128 165 216 179 128 133 266 334 46 295 278 253 261 288 323 292 292 316 319 306 307 312 297 277 276 271 268 272 272 270
214 213 214 214 217 217 210 199 186 181 183 180 196 216 212 205 185 186 176 140 143 137 134 173 189 172 210 231 218 208 181 160 161 168 208 214 223 206 205 235 190 186 195 189 208 206 160 268 297 83 194 291 301 256 10 7 79 115 178 214 195 125 78 91 269 341 30 262 277 299 270 285 345 287 306 339 322 302 302 313 311 301 304 284 280 294 296 284
211 208 213 216 216 213 203 193 186 184 184 195 226 226 204 194 202 181 162 146 120 133 151 200 203 182 189 199 210 184 172 185 173 174 195 213 247 191 164 215 199 190 198 190 220 257 157 261 300 77 193 293 348 71 54 4 46 108 206 229 112 132 118 99 165 257 274 267 285 301 292 268 199 227 286 295 288 293 302 313 322 314 318 312 308 320 318 291
207 201 215 221 215 207 197 187 182 183 187 204 225 231 204 198 228 202 178 167 108 142 177 208 202 171 168 177 174 163 176 186 170 172 182 181 235 202 166 201 202 188 190 179 186 248 134 218 284 313 245 297 12 130 191 233 26 35 323 333 0 160 167 160 152 164 182 246 289 310 317 272 214 208 224 248 263 279 294 305 313 302 298 303 307 319 320 285
200 196 223 219 210 204 191 178 176 183 202 212 220 223 184 188 241 227 204 189 146 179 193 205 199 189 170 170 164 172 183 187 171 178 209 193 225 240 199 189 149 125 166 168 182 214 111 204 253 301 312 196 197 212 192 186 169 142 214 245 283 223 128 170 200 139 141 159 217 306 303 274 241 193 205 232 249 250 261 282 294 292 294 305 316 329 329 294
193 198 222 203 203 198 180 168 176 191 213 237 240 219 181 186 222 231 223 212 213 218 175 170 193 190 172 176 198 185 173 177 179 189 225 202 213 251 211 179 149 123 118 137 206 208 182 190 189 246 267 195 229 250 212 201 183 168 191 192 188 177 118 113 259 269 108 147 179 162 288 281 264 191 214 232 244 244 243 256 274 287 296 314 335 348 342 313
188 206 202 185 193 189 173 162 195 196 210 228 230 182 183 203 207 230 230 217 221 242 184 187 195 183 177 180 187 176 166 174 190 195 220 211 209 228 208 163 150 143 131 135 207 185 146 121 146 235 230 211 246 274 224 215 172 163 205 190 176 176 145 156 217 241 145 148 157 116 270 279 259 193 223 242 239 250 258 252 263 295 308 326 345 348 349 339
183 186 180 183 191 182 169 158 218 199 229 227 198 202 206 211 205 212 219 208 207 204 205 224 192 194 211 185 163 177 182 189 189 189 209 221 219 229 193 154 147 143 134 139 174 155 129 121 173 276 295 301 314 320 352 32 87 183 236 188 177 204 190 167 187 184 158 172 153 112 248 263 254 191 225 234 233 256 277 272 258 291 318 331 333 330 336 340
178 166 155 179 186 179 171 186 202 201 227 215 203 237 234 248 216 200 209 210 198 180 198 224 210 209 220 176 164 185 189 195 200 196 201 203 217 231 183 161 159 162 182 180 165 166 173 173 157 213 322 328 338 340 321 326 306 212 233 201 200 205 162 105 137 147 197 212 176 150 245 254 258 7 267 251 281 281 273 264 249 281 316 322 316 314 317 319
165 150 153 177 182 180 184 212 192 203 218 211 219 223 223 252 227 207 214 216 207 188 191 228 218 191 186 171 175 192 195 212 224 203 193 196 225 252 188 179 178 180 196 189 159 160 172 201 160 157 220 238 258 253 233 247 196 199 231 213 207 201 180 161 161 173 225 237 181 176 241 257 269 286 273 267 281 282 275 276 281 287 297 301 300 299 299 299
168 163 149 174 184 192 210 224 212 221 213 208 221 215 211 230 236 211 212 224 229 211 195 286 202 167 178 187 194 209 213 227 234 207 191 198 224 295 187 192 195 191 177 159 156 152 136 253 190 187 212 218 225 231 211 145 142 191 216 206 201 202 194 181 146 174 206 227 218 219 239 264 271 265 264 268 266 272 283 291 289 285 285 284 283 284 286 287
179 181 164 169 189 207 224 228 219 222 202 196 199 198 208 219 235 216 207 215 220 205 211 288 195 193 205 192 199 222 212 211 221 215 197 185 202 332 74 191 209 212 179 140 162 153 90 251 212 212 226 226 231 236 208 161 192 209 207 208 204 198 194 193 202 205 189 201 241 236 233 257 266 263 262 268 270 277 283 279 275 276 277 275 274 275 278 279
201 196 178 178 181 199 211 215 212 209 213 203 200 206 208 211 218 217 208 206 195 191 206 232 214 218 217 190 194 220 202 205 223 214 185 159 151 97 76 107 220 206 178 147 174 154 147 233 210 208 235 242 245 251 236 209 232 226 209 212 203 192 193 200 214 213 192 213 243 242 226 237 255 263 263 262 270 276 268 269 273 271 269 269 270 271 270 271
211 261 191 187 190 199 204 209 205 203 211 212 210 220 215 211 216 215 197 171 201 202 203 224 230 225 218 194 192 215 208 209 224 214 166 161 167 152 162 184 197 198 175 171 195 155 175 238 195 194 241 253 245 255 261 252 263 262 240 224 206 201 201 202 214 215 214 231 242 247 249 247 251 262 266 265 269 268 269 275 275 268 264 264 266 267 266 267
215 254 190 192 207 204 203 209 197 196 211 209 214 225 222 222 222 214 189 185 206 201 191 221 232 220 199 199 204 227 228 218 223 213 156 169 193 176 204 202 152 173 195 173 193 193 196 245 150 150 244 259 234 246 258 252 259 263 255 238 212 209 211 213 220 217 222 239 246 249 258 260 258 261 267 273 276 270 273 277 272 268 266 261 257 259 262 265
242 251 231 208 218 183 188 197 181 191 209 204 216 227 226 231 224 209 212 215 215 208 192 215 228 202 160 202 212 230 235 225 226 206 167 182 202 190 205 207 155 164 189 172 166 160 187 244 52 90 258 257 208 219 246 257 269 268 262 249 222 213 213 213 216 209 215 234 245 248 253 257 259 265 271 275 269 263 265 264 264 268 269 258 251 255 260 263
282 283 276 271 234 188 187 185 180 197 208 202 215 220 220 228 212 186 221 229 222 224 219 215 219 189 180 215 218 228 237 234 239 234 203 206 212 202 207 205 178 171 167 163 171 137 161 192 113 129 229 265 256 236 251 283 291 275 262 231 211 216 219 219 221 217 214 221 233 239 243 247 254 268 276 274 264 256 258 256 258 267 270 260 254 256 261 265